| time (UTC) | temp F | wind direction | speed MPH | gust MPH | rain 1hr in | rain 24hr in | rain mn in | humidity % | barometer mb |
| 20260509201052 | 94 | 318 | 3.0 | 3.0 | 0.00 | 0.00 | 0.00 | 15 | 1011.6 |
| 20260509200550 | 93 | 282 | 6.0 | 7.0 | 0.00 | 0.00 | 0.00 | 14 | 1011.4 |
| 20260509200047 | 93 | 204 | 2.0 | 2.0 | 0.00 | 0.00 | 0.00 | 16 | 1011.5 |
| 20260509195543 | 93 | 162 | 8.0 | 10.0 | 0.00 | 0.00 | 0.00 | 16 | 1011.5 |
| 20260509195037 | 93 | 278 | 5.0 | 6.0 | 0.00 | 0.00 | 0.00 | 14 | 1011.5 |
| 20260509194532 | 93 | 351 | 3.0 | 6.0 | 0.00 | 0.00 | 0.00 | 14 | 1011.8 |
| 20260509194031 | 93 | 108 | 6.0 | 7.0 | 0.00 | 0.00 | 0.00 | 14 | 1011.6 |
| 20260509193531 | 92 | 241 | 5.0 | 7.0 | 0.00 | 0.00 | 0.00 | 14 | 1011.8 |
| 20260509193027 | 91 | 317 | 6.0 | 8.0 | 0.00 | 0.00 | 0.00 | 16 | 1011.8 |
| 20260509192524 | 91 | 233 | 2.0 | 2.0 | 0.00 | 0.00 | 0.00 | 15 | 1011.9 |
| 20260509192019 | 92 | 354 | 6.0 | 9.0 | 0.00 | 0.00 | 0.00 | 15 | 1011.9 |
| 20260509191514 | 91 | 301 | 4.0 | 5.0 | 0.00 | 0.00 | 0.00 | 17 | 1012.1 |
| 20260509191010 | 91 | 305 | 4.0 | 5.0 | 0.00 | 0.00 | 0.00 | 18 | 1012.0 |
| 20260509190507 | 91 | 297 | 3.0 | 3.0 | 0.00 | 0.00 | 0.00 | 16 | 1011.9 |
| 20260509190006 | 92 | 214 | 1.0 | 1.0 | 0.00 | 0.00 | 0.00 | 18 | 1012.0 |
| 20260509185502 | 91 | 91 | 1.0 | 2.0 | 0.00 | 0.00 | 0.00 | 16 | 1012.2 |
| 20260509184958 | 91 | 359 | 5.0 | 6.0 | 0.00 | 0.00 | 0.00 | 16 | 1012.2 |
| 20260509184457 | 89 | 331 | 3.0 | 3.0 | 0.00 | 0.00 | 0.00 | 18 | 1012.3 |
| 20260509183952 | 90 | 351 | 3.0 | 3.0 | 0.00 | 0.00 | 0.00 | 17 | 1012.4 |
| 20260509183447 | 90 | 328 | 3.0 | 3.0 | 0.00 | 0.00 | 0.00 | 21 | 1012.5 |
| 20260509182944 | 88 | 85 | 5.0 | 7.0 | 0.00 | 0.00 | 0.00 | 19 | 1012.5 |
| 20260509182440 | 88 | 322 | 5.0 | 6.0 | 0.00 | 0.00 | 0.00 | 18 | 1012.9 |
| 20260509181937 | 88 | 318 | 6.0 | 7.0 | 0.00 | 0.00 | 0.00 | 23 | 1012.8 |
| 20260509181435 | 89 | 300 | 7.0 | 8.0 | 0.00 | 0.00 | 0.00 | 19 | 1012.8 |
| 20260509180933 | 87 | 155 | 0.0 | 0.0 | 0.00 | 0.00 | 0.00 | 18 | 1012.8 |
| 20260509180428 | 87 | 214 | 4.0 | 5.0 | 0.00 | 0.00 | 0.00 | 19 | 1013.0 |
| 20260509175925 | 87 | 275 | 5.0 | 6.0 | 0.00 | 0.00 | 0.00 | 24 | 1013.3 |
| 20260509175421 | 87 | 185 | 4.0 | 5.0 | 0.00 | 0.00 | 0.00 | 19 | 1013.1 |
| 20260509174917 | 86 | 244 | 6.0 | 7.0 | 0.00 | 0.00 | 0.00 | 19 | 1013.1 |
| 20260509174414 | 85 | 236 | 3.0 | 3.0 | 0.00 | 0.00 | 0.00 | 21 | 1013.3 |
| 20260509173910 | 85 | 285 | 8.0 | 8.0 | 0.00 | 0.00 | 0.00 | 20 | 1013.1 |
| 20260509173409 | 87 | 279 | 5.0 | 7.0 | 0.00 | 0.00 | 0.00 | 20 | 1013.4 |
| 20260509172906 | 85 | 2 | 2.0 | 2.0 | 0.00 | 0.00 | 0.00 | 20 | 1013.2 |
| 20260509172403 | 85 | 249 | 4.0 | 6.0 | 0.00 | 0.00 | 0.00 | 22 | 1013.3 |
| 20260509171859 | 84 | 256 | 3.0 | 3.0 | 0.00 | 0.00 | 0.00 | 21 | 1013.3 |
| 20260509171355 | 85 | 230 | 4.0 | 5.0 | 0.00 | 0.00 | 0.00 | 22 | 1013.4 |
| 20260509170851 | 85 | 272 | 5.0 | 6.0 | 0.00 | 0.00 | 0.00 | 21 | 1013.3 |
| 20260509170347 | 84 | 243 | 4.0 | 5.0 | 0.00 | 0.00 | 0.00 | 21 | 1013.4 |
| 20260509165842 | 84 | 222 | 4.0 | 5.0 | 0.00 | 0.00 | 0.00 | 22 | 1013.4 |
| 20260509165336 | 84 | 43 | 4.0 | 5.0 | 0.00 | 0.00 | 0.00 | 21 | 1013.3 |
| 20260509164833 | 84 | 290 | 7.0 | 8.0 | 0.00 | 0.00 | 0.00 | 20 | 1013.5 |
| 20260509164329 | 84 | 326 | 5.0 | 6.0 | 0.00 | 0.00 | 0.00 | 22 | 1013.2 |
| 20260509163826 | 83 | 235 | 3.0 | 5.0 | 0.00 | 0.00 | 0.00 | 22 | 1013.1 |
| 20260509163322 | 83 | 236 | 4.0 | 5.0 | 0.00 | 0.00 | 0.00 | 23 | 1013.3 |
| 20260509162822 | 82 | 248 | 4.0 | 5.0 | 0.00 | 0.00 | 0.00 | 23 | 1013.5 |
| 20260509162314 | 83 | 193 | 5.0 | 6.0 | 0.00 | 0.00 | 0.00 | 22 | 1013.3 |
| 20260509161811 | 82 | 210 | 3.0 | 3.0 | 0.00 | 0.00 | 0.00 | 22 | 1013.5 |
| 20260509161307 | 83 | 229 | 2.0 | 2.0 | 0.00 | 0.00 | 0.00 | 24 | 1013.3 |
| 20260509160803 | 82 | 228 | 2.0 | 2.0 | 0.00 | 0.00 | 0.00 | 23 | 1013.4 |
| 20260509160259 | 84 | 178 | 0.0 | 1.0 | 0.00 | 0.00 | 0.00 | 23 | 1013.5 |
| 20260509155754 | 84 | 190 | 1.0 | 2.0 | 0.00 | 0.00 | 0.00 | 23 | 1013.4 |
| 20260509155251 | 84 | 142 | 1.0 | 2.0 | 0.00 | 0.00 | 0.00 | 23 | 1013.4 |
| 20260509154747 | 82 | 116 | 1.0 | 1.0 | 0.00 | 0.00 | 0.00 | 24 | 1013.3 |
| 20260509154244 | 82 | 186 | 0.0 | 0.0 | 0.00 | 0.00 | 0.00 | 24 | 1013.5 |
| 20260509153741 | 81 | 176 | 0.0 | 0.0 | 0.00 | 0.00 | 0.00 | 26 | 1013.5 |
| 20260509153237 | 80 | 17 | 1.0 | 1.0 | 0.00 | 0.00 | 0.00 | 24 | 1013.5 |
| 20260509152734 | 80 | 40 | 1.0 | 2.0 | 0.00 | 0.00 | 0.00 | 24 | 1013.5 |
| 20260509152230 | 80 | 162 | 0.0 | 0.0 | 0.00 | 0.00 | 0.00 | 24 | 1013.4 |
| 20260509151727 | 80 | 122 | 0.0 | 1.0 | 0.00 | 0.00 | 0.00 | 23 | 1013.5 |
| 20260509151224 | 79 | 174 | 0.0 | 1.0 | 0.00 | 0.00 | 0.00 | 27 | 1013.5 |
| 20260509150722 | 78 | 171 | 1.0 | 1.0 | 0.00 | 0.00 | 0.00 | 25 | 1013.4 |
| 20260509150220 | 77 | 159 | 1.0 | 1.0 | 0.00 | 0.00 | 0.00 | 26 | 1013.3 |
| 20260509145717 | 77 | 165 | 1.0 | 1.0 | 0.00 | 0.00 | 0.00 | 28 | 1013.4 |
| 20260509145211 | 77 | 122 | 0.0 | 1.0 | 0.00 | 0.00 | 0.00 | 27 | 1013.5 |
| 20260509144708 | 76 | 135 | 0.0 | 0.0 | 0.00 | 0.00 | 0.00 | 29 | 1013.4 |
| 20260509144205 | 75 | 137 | 0.0 | 1.0 | 0.00 | 0.00 | 0.00 | 29 | 1013.4 |
| 20260509143703 | 74 | 142 | 1.0 | 1.0 | 0.00 | 0.00 | 0.00 | 30 | 1013.3 |
| 20260509143200 | 73 | 155 | 1.0 | 1.0 | 0.00 | 0.00 | 0.00 | 30 | 1013.5 |
| 20260509142655 | 73 | 166 | 1.0 | 2.0 | 0.00 | 0.00 | 0.00 | 31 | 1013.4 |
| 20260509142152 | 72 | 153 | 1.0 | 1.0 | 0.00 | 0.00 | 0.00 | 31 | 1013.5 |
| 20260509141648 | 71 | 144 | 1.0 | 1.0 | 0.00 | 0.00 | 0.00 | 31 | 1013.3 |
| 20260509141144 | 70 | 168 | 0.0 | 0.0 | 0.00 | 0.00 | 0.00 | 32 | 1013.4 |
| 20260509140641 | 69 | 167 | 1.0 | 1.0 | 0.00 | 0.00 | 0.00 | 33 | 1013.4 |
| 20260509140139 | 68 | 170 | 1.0 | 1.0 | 0.00 | 0.00 | 0.00 | 33 | 1013.3 |
| 20260509135636 | 68 | 175 | 2.0 | 3.0 | 0.00 | 0.00 | 0.00 | 33 | 1013.4 |
| 20260509135134 | 68 | 143 | 1.0 | 1.0 | 0.00 | 0.00 | 0.00 | 33 | 1013.4 |
| 20260509134630 | 68 | 176 | 1.0 | 1.0 | 0.00 | 0.00 | 0.00 | 33 | 1013.2 |
| 20260509134128 | 67 | 169 | 0.0 | 1.0 | 0.00 | 0.00 | 0.00 | 33 | 1013.1 |
| 20260509133625 | 67 | 165 | 0.0 | 1.0 | 0.00 | 0.00 | 0.00 | 33 | 1013.0 |
| 20260509133122 | 66 | 157 | 0.0 | 1.0 | 0.00 | 0.00 | 0.00 | 34 | 1012.9 |
| 20260509132620 | 65 | 165 | 0.0 | 1.0 | 0.00 | 0.00 | 0.00 | 34 | 1012.8 |
| 20260509132119 | 65 | 138 | 1.0 | 2.0 | 0.00 | 0.00 | 0.00 | 35 | 1013.0 |
| 20260509131614 | 64 | 177 | 1.0 | 2.0 | 0.00 | 0.00 | 0.00 | 36 | 1012.9 |
| 20260509131112 | 64 | 161 | 0.0 | 1.0 | 0.00 | 0.00 | 0.00 | 36 | 1012.8 |
| 20260509130607 | 63 | 133 | 1.0 | 1.0 | 0.00 | 0.00 | 0.00 | 37 | 1013.0 |
| 20260509130104 | 62 | 174 | 0.0 | 1.0 | 0.00 | 0.00 | 0.00 | 37 | 1012.7 |
| 20260509125600 | 62 | 191 | 2.0 | 2.0 | 0.00 | 0.00 | 0.00 | 38 | 1012.5 |
| 20260509125057 | 61 | 176 | 1.0 | 1.0 | 0.00 | 0.00 | 0.00 | 39 | 1012.8 |
| 20260509124553 | 60 | 147 | 0.0 | 1.0 | 0.00 | 0.00 | 0.00 | 40 | 1012.5 |
| 20260509124051 | 60 | 191 | 1.0 | 1.0 | 0.00 | 0.00 | 0.00 | 40 | 1012.4 |
| 20260509123549 | 60 | 203 | 4.0 | 5.0 | 0.00 | 0.00 | 0.00 | 39 | 1012.2 |
| 20260509123045 | 61 | 194 | 4.0 | 5.0 | 0.00 | 0.00 | 0.00 | 39 | 1012.5 |
| 20260509122541 | 60 | 177 | 3.0 | 3.0 | 0.00 | 0.00 | 0.00 | 39 | 1012.3 |
| 20260509122039 | 61 | 181 | 4.0 | 5.0 | 0.00 | 0.00 | 0.00 | 39 | 1012.4 |
| 20260509121535 | 61 | 197 | 3.0 | 3.0 | 0.00 | 0.00 | 0.00 | 38 | 1012.4 |
| 20260509121033 | 62 | 210 | 3.0 | 3.0 | 0.00 | 0.00 | 0.00 | 38 | 1012.2 |
| 20260509120531 | 62 | 186 | 2.0 | 2.0 | 0.00 | 0.00 | 0.00 | 38 | 1012.3 |
| 20260509120029 | 62 | 182 | 0.0 | 1.0 | 0.00 | 0.00 | 0.00 | 37 | 1012.3 |
| 20260509115525 | 63 | 168 | 1.0 | 1.0 | 0.00 | 0.00 | 0.00 | 37 | 1012.1 |
| 20260509115023 | 63 | 209 | 1.0 | 1.0 | 0.00 | 0.00 | 0.00 | 37 | 1012.1 |
| 20260509114521 | 63 | 188 | 1.0 | 1.0 | 0.00 | 0.00 | 0.00 | 37 | 1011.8 |
| 20260509114020 | 63 | 185 | 1.0 | 1.0 | 0.00 | 0.00 | 0.00 | 36 | 1011.9 |
| 20260509113518 | 62 | 166 | 1.0 | 2.0 | 0.00 | 0.00 | 0.00 | 36 | 1011.9 |
| 20260509113015 | 63 | 182 | 0.0 | 0.0 | 0.00 | 0.00 | 0.00 | 37 | 1012.1 |
| 20260509112511 | 63 | 181 | 1.0 | 1.0 | 0.00 | 0.00 | 0.00 | 35 | 1012.1 |
| 20260509112008 | 63 | 175 | 0.0 | 0.0 | 0.00 | 0.00 | 0.00 | 36 | 1012.1 |
| 20260509111506 | 62 | 150 | 1.0 | 1.0 | 0.00 | 0.00 | 0.00 | 36 | 1012.0 |
| 20260509111003 | 62 | 182 | 0.0 | 0.0 | 0.00 | 0.00 | 0.00 | 37 | 1012.1 |
| 20260509110459 | 63 | 182 | 0.0 | 1.0 | 0.00 | 0.00 | 0.00 | 36 | 1012.1 |
| 20260509105956 | 63 | 189 | 0.0 | 0.0 | 0.00 | 0.00 | 0.00 | 36 | 1011.9 |
| 20260509105455 | 63 | 181 | 0.0 | 0.0 | 0.00 | 0.00 | 0.00 | 35 | 1011.9 |
| 20260509104952 | 64 | 142 | 0.0 | 1.0 | 0.00 | 0.00 | 0.00 | 34 | 1012.0 |
| 20260509104448 | 64 | 189 | 2.0 | 2.0 | 0.00 | 0.00 | 0.00 | 35 | 1011.8 |
| 20260509103946 | 64 | 187 | 1.0 | 2.0 | 0.00 | 0.00 | 0.00 | 34 | 1012.0 |
| 20260509103443 | 64 | 165 | 1.0 | 1.0 | 0.00 | 0.00 | 0.00 | 35 | 1011.9 |
| 20260509102941 | 64 | 205 | 1.0 | 2.0 | 0.00 | 0.00 | 0.00 | 34 | 1012.1 |
| 20260509102438 | 65 | 192 | 3.0 | 3.0 | 0.00 | 0.00 | 0.00 | 33 | 1012.0 |
| 20260509101934 | 65 | 173 | 3.0 | 3.0 | 0.00 | 0.00 | 0.00 | 32 | 1011.9 |
| 20260509101431 | 65 | 180 | 1.0 | 1.0 | 0.00 | 0.00 | 0.00 | 32 | 1012.1 |
| 20260509100928 | 66 | 168 | 0.0 | 1.0 | 0.00 | 0.00 | 0.00 | 32 | 1012.1 |
| 20260509100425 | 66 | 166 | 0.0 | 1.0 | 0.00 | 0.00 | 0.00 | 32 | 1012.1 |
| 20260509095922 | 66 | 188 | 2.0 | 2.0 | 0.00 | 0.00 | 0.00 | 32 | 1012.1 |
| 20260509095419 | 65 | 202 | 0.0 | 1.0 | 0.00 | 0.00 | 0.00 | 33 | 1012.0 |
| 20260509094916 | 65 | 171 | 0.0 | 1.0 | 0.00 | 0.00 | 0.00 | 33 | 1012.2 |
| 20260509094413 | 65 | 194 | 2.0 | 2.0 | 0.00 | 0.00 | 0.00 | 33 | 1012.0 |
| 20260509093911 | 65 | 177 | 3.0 | 3.0 | 0.00 | 0.00 | 0.00 | 33 | 1012.0 |
| 20260509093408 | 65 | 190 | 2.0 | 2.0 | 0.00 | 0.00 | 0.00 | 33 | 1012.1 |
| 20260509092906 | 65 | 177 | 1.0 | 1.0 | 0.00 | 0.00 | 0.00 | 33 | 1012.0 |
| 20260509092403 | 65 | 169 | 1.0 | 2.0 | 0.00 | 0.00 | 0.00 | 33 | 1012.2 |
| 20260509091902 | 65 | 194 | 2.0 | 2.0 | 0.00 | 0.00 | 0.00 | 33 | 1012.0 |
| 20260509091358 | 66 | 187 | 0.0 | 1.0 | 0.00 | 0.00 | 0.00 | 32 | 1012.1 |
| 20260509090855 | 66 | 195 | 3.0 | 5.0 | 0.00 | 0.00 | 0.00 | 31 | 1012.2 |
| 20260509090352 | 66 | 160 | 1.0 | 1.0 | 0.00 | 0.00 | 0.00 | 32 | 1012.2 |
| 20260509085850 | 66 | 195 | 0.0 | 0.0 | 0.00 | 0.00 | 0.00 | 32 | 1012.2 |
| 20260509085347 | 66 | 172 | 3.0 | 3.0 | 0.00 | 0.00 | 0.00 | 32 | 1012.3 |
| 20260509084843 | 66 | 182 | 0.0 | 1.0 | 0.00 | 0.00 | 0.00 | 32 | 1012.0 |
| 20260509084340 | 67 | 187 | 5.0 | 6.0 | 0.00 | 0.00 | 0.00 | 32 | 1012.2 |
| 20260509083838 | 67 | 191 | 3.0 | 3.0 | 0.00 | 0.00 | 0.00 | 31 | 1012.2 |
| 20260509083334 | 68 | 191 | 1.0 | 2.0 | 0.00 | 0.00 | 0.00 | 31 | 1012.1 |
| 20260509082831 | 69 | 172 | 0.0 | 0.0 | 0.00 | 0.00 | 0.00 | 30 | 1012.3 |
| 20260509082328 | 69 | 168 | 0.0 | 1.0 | 0.00 | 0.00 | 0.00 | 30 | 1012.3 |
| 20260509081826 | 70 | 163 | 0.0 | 0.0 | 0.00 | 0.00 | 0.00 | 28 | 1012.2 |
| 20260509081322 | 70 | 150 | 1.0 | 1.0 | 0.00 | 0.00 | 0.00 | 28 | 1012.2 |
| 20260509080820 | 69 | 149 | 2.0 | 2.0 | 0.00 | 0.00 | 0.00 | 28 | 1012.1 |
| 20260509080318 | 69 | 170 | 0.0 | 1.0 | 0.00 | 0.00 | 0.00 | 29 | 1012.0 |
| 20260509075816 | 69 | 170 | 0.0 | 1.0 | 0.00 | 0.00 | 0.00 | 29 | 1012.0 |
| 20260509075313 | 70 | 194 | 0.0 | 1.0 | 0.00 | 0.00 | 0.00 | 29 | 1012.1 |
| 20260509074810 | 70 | 189 | 0.0 | 1.0 | 0.00 | 0.00 | 0.00 | 28 | 1012.2 |
| 20260509074308 | 71 | 184 | 3.0 | 3.0 | 0.00 | 0.00 | 0.00 | 27 | 1012.1 |
| 20260509073804 | 71 | 175 | 1.0 | 1.0 | 0.00 | 0.00 | 0.00 | 27 | 1012.2 |
| 20260509073300 | 70 | 189 | 0.0 | 1.0 | 0.00 | 0.00 | 0.00 | 28 | 1012.1 |
| 20260509072757 | 70 | 199 | 0.0 | 0.0 | 0.00 | 0.00 | 0.00 | 28 | 1012.0 |
| 20260509072253 | 71 | 191 | 1.0 | 2.0 | 0.00 | 0.00 | 0.00 | 27 | 1012.4 |
| 20260509071750 | 71 | 88 | 1.0 | 2.0 | 0.00 | 0.00 | 0.00 | 27 | 1012.0 |
| 20260509071247 | 71 | 174 | 0.0 | 0.0 | 0.00 | 0.00 | 0.00 | 27 | 1012.1 |
| 20260509070744 | 70 | 146 | 3.0 | 3.0 | 0.00 | 0.00 | 0.00 | 27 | 1012.0 |
| 20260509070240 | 70 | 193 | 1.0 | 2.0 | 0.00 | 0.00 | 0.00 | 28 | 1011.9 |
| 20260509065737 | 69 | 151 | 1.0 | 1.0 | 0.00 | 0.00 | 0.00 | 29 | 1012.0 |
| 20260509065234 | 68 | 162 | 0.0 | 1.0 | 0.00 | 0.00 | 0.00 | 31 | 1011.9 |
| 20260509064730 | 69 | 187 | 0.0 | 0.0 | 0.00 | 0.00 | 0.00 | 30 | 1012.2 |
| 20260509064227 | 69 | 180 | 4.0 | 5.0 | 0.00 | 0.00 | 0.00 | 29 | 1012.2 |
| 20260509063725 | 69 | 180 | 2.0 | 2.0 | 0.00 | 0.00 | 0.00 | 29 | 1012.1 |
| 20260509063221 | 70 | 200 | 3.0 | 3.0 | 0.00 | 0.00 | 0.00 | 29 | 1012.0 |
| 20260509062718 | 70 | 141 | 1.0 | 1.0 | 0.00 | 0.00 | 0.00 | 28 | 1011.9 |
| 20260509062215 | 71 | 200 | 3.0 | 3.0 | 0.00 | 0.00 | 0.00 | 29 | 1012.0 |
| 20260509061712 | 71 | 182 | 0.0 | 0.0 | 0.00 | 0.00 | 0.00 | 29 | 1011.8 |
| 20260509061210 | 71 | 174 | 1.0 | 1.0 | 0.00 | 0.00 | 0.00 | 29 | 1011.8 |
| 20260509060707 | 71 | 181 | 0.0 | 0.0 | 0.00 | 0.00 | 0.00 | 29 | 1011.7 |
| 20260509060203 | 71 | 193 | 0.0 | 1.0 | 0.00 | 0.00 | 0.00 | 29 | 1011.9 |
| 20260509055659 | 71 | 188 | 1.0 | 2.0 | 0.00 | 0.00 | 0.00 | 29 | 1011.8 |
| 20260509055155 | 71 | 186 | 1.0 | 1.0 | 0.00 | 0.00 | 0.00 | 29 | 1011.8 |
| 20260509054652 | 71 | 165 | 0.0 | 1.0 | 0.00 | 0.00 | 0.00 | 28 | 1011.8 |
| 20260509054149 | 71 | 166 | 0.0 | 1.0 | 0.00 | 0.00 | 0.00 | 30 | 1011.5 |
| 20260509053648 | 72 | 144 | 0.0 | 1.0 | 0.00 | 0.00 | 0.00 | 29 | 1011.6 |
| 20260509053144 | 72 | 175 | 0.0 | 0.0 | 0.00 | 0.00 | 0.00 | 29 | 1011.7 |
| 20260509052642 | 73 | 178 | 0.0 | 0.0 | 0.00 | 0.00 | 0.00 | 28 | 1012.1 |
| 20260509052139 | 74 | 185 | 0.0 | 0.0 | 0.00 | 0.00 | 0.00 | 28 | 1011.8 |
| 20260509051637 | 75 | 181 | 0.0 | 0.0 | 0.00 | 0.00 | 0.00 | 26 | 1011.7 |
| 20260509051134 | 76 | 176 | 1.0 | 1.0 | 0.00 | 0.00 | 0.00 | 25 | 1011.8 |
| 20260509050631 | 78 | 185 | 0.0 | 0.0 | 0.00 | 0.00 | 0.00 | 23 | 1011.7 |
| 20260509050127 | 78 | 153 | 1.0 | 1.0 | 0.00 | 0.00 | 0.00 | 22 | 1011.5 |
| 20260509045625 | 77 | 157 | 0.0 | 0.0 | 0.00 | 0.00 | 0.00 | 22 | 1011.6 |
| 20260509045122 | 77 | 135 | 1.0 | 2.0 | 0.00 | 0.00 | 0.00 | 23 | 1011.5 |
| 20260509044619 | 78 | 131 | 0.0 | 1.0 | 0.00 | 0.00 | 0.00 | 24 | 1011.5 |
| 20260509044116 | 78 | 193 | 0.0 | 0.0 | 0.00 | 0.00 | 0.00 | 22 | 1011.4 |
| 20260509043613 | 80 | 190 | 0.0 | 1.0 | 0.00 | 0.00 | 0.00 | 21 | 1011.4 |
| 20260509043108 | 80 | 183 | 0.0 | 0.0 | 0.00 | 0.00 | 0.00 | 20 | 1011.5 |
| 20260509042605 | 81 | 192 | 0.0 | 1.0 | 0.00 | 0.00 | 0.00 | 20 | 1011.4 |
| 20260509042101 | 80 | 228 | 1.0 | 1.0 | 0.00 | 0.00 | 0.00 | 20 | 1011.1 |
| 20260509041558 | 80 | 209 | 0.0 | 0.0 | 0.00 | 0.00 | 0.00 | 21 | 1010.9 |
| 20260509041055 | 80 | 179 | 0.0 | 1.0 | 0.00 | 0.00 | 0.00 | 21 | 1010.9 |
| 20260509040554 | 80 | 197 | 0.0 | 0.0 | 0.00 | 0.00 | 0.00 | 20 | 1011.0 |
| 20260509040050 | 82 | 183 | 0.0 | 0.0 | 0.00 | 0.00 | 0.00 | 20 | 1011.1 |
| 20260509035547 | 82 | 315 | 1.0 | 1.0 | 0.00 | 0.00 | 0.00 | 18 | 1011.1 |
| 20260509035043 | 82 | 347 | 2.0 | 3.0 | 0.00 | 0.00 | 0.00 | 18 | 1011.0 |
| 20260509034542 | 82 | 355 | 2.0 | 2.0 | 0.00 | 0.00 | 0.00 | 19 | 1010.8 |
| 20260509034038 | 82 | 341 | 1.0 | 1.0 | 0.00 | 0.00 | 0.00 | 19 | 1010.9 |
| 20260509033536 | 82 | 274 | 1.0 | 1.0 | 0.00 | 0.00 | 0.00 | 20 | 1010.8 |
| 20260509033032 | 82 | 215 | 0.0 | 0.0 | 0.00 | 0.00 | 0.00 | 21 | 1010.6 |
| 20260509032530 | 82 | 308 | 1.0 | 1.0 | 0.00 | 0.00 | 0.00 | 20 | 1010.6 |
| 20260509032027 | 83 | 220 | 0.0 | 1.0 | 0.00 | 0.00 | 0.00 | 20 | 1010.8 |
| 20260509031524 | 83 | 305 | 2.0 | 2.0 | 0.00 | 0.00 | 0.00 | 19 | 1010.8 |
| 20260509031021 | 83 | 317 | 2.0 | 2.0 | 0.00 | 0.00 | 0.00 | 19 | 1010.8 |
| 20260509030519 | 83 | 293 | 2.0 | 2.0 | 0.00 | 0.00 | 0.00 | 20 | 1010.5 |
| 20260509030016 | 84 | 252 | 1.0 | 1.0 | 0.00 | 0.00 | 0.00 | 18 | 1010.3 |
| 20260509025512 | 84 | 254 | 1.0 | 1.0 | 0.00 | 0.00 | 0.00 | 19 | 1010.4 |
| 20260509025008 | 85 | 309 | 2.0 | 2.0 | 0.00 | 0.00 | 0.00 | 18 | 1010.3 |
| 20260509024504 | 85 | 292 | 4.0 | 5.0 | 0.00 | 0.00 | 0.00 | 17 | 1009.9 |
| 20260509024001 | 85 | 5 | 2.0 | 2.0 | 0.00 | 0.00 | 0.00 | 19 | 1010.3 |
| 20260509023458 | 85 | 259 | 2.0 | 3.0 | 0.00 | 0.00 | 0.00 | 19 | 1009.9 |
| 20260509022954 | 85 | 307 | 3.0 | 3.0 | 0.00 | 0.00 | 0.00 | 19 | 1010.1 |
| 20260509022451 | 84 | 345 | 1.0 | 2.0 | 0.00 | 0.00 | 0.00 | 20 | 1010.2 |
| 20260509021949 | 84 | 272 | 1.0 | 2.0 | 0.00 | 0.00 | 0.00 | 20 | 1010.1 |
| 20260509021446 | 85 | 231 | 1.0 | 1.0 | 0.00 | 0.00 | 0.00 | 21 | 1010.2 |
| 20260509020943 | 85 | 285 | 1.0 | 1.0 | 0.00 | 0.00 | 0.00 | 18 | 1010.1 |
| 20260509020441 | 86 | 288 | 2.0 | 3.0 | 0.00 | 0.00 | 0.00 | 18 | 1009.8 |
| 20260509015938 | 87 | 167 | 1.0 | 1.0 | 0.00 | 0.00 | 0.00 | 17 | 1009.9 |
| 20260509015437 | 87 | 1 | 3.0 | 3.0 | 0.00 | 0.00 | 0.00 | 17 | 1009.7 |
| 20260509014933 | 88 | 275 | 1.0 | 1.0 | 0.00 | 0.00 | 0.00 | 16 | 1009.9 |
| 20260509014430 | 87 | 343 | 6.0 | 7.0 | 0.00 | 0.00 | 0.00 | 15 | 1009.7 |
| 20260509013926 | 88 | 350 | 3.0 | 3.0 | 0.00 | 0.00 | 0.00 | 15 | 1009.8 |
| 20260509013423 | 88 | 347 | 6.0 | 7.0 | 0.00 | 0.00 | 0.00 | 14 | 1009.6 |
| 20260509012919 | 88 | 341 | 10.0 | 10.0 | 0.00 | 0.00 | 0.00 | 14 | 1009.9 |
| 20260509012416 | 89 | 308 | 5.0 | 7.0 | 0.00 | 0.00 | 0.00 | 15 | 1009.6 |
| 20260509011913 | 89 | 315 | 6.0 | 9.0 | 0.00 | 0.00 | 0.00 | 14 | 1009.5 |
| 20260509011410 | 89 | 350 | 3.0 | 3.0 | 0.00 | 0.00 | 0.00 | 15 | 1009.6 |
| 20260509010908 | 89 | 319 | 5.0 | 6.0 | 0.00 | 0.00 | 0.00 | 14 | 1009.6 |
| 20260509010405 | 89 | 4 | 3.0 | 5.0 | 0.00 | 0.00 | 0.00 | 15 | 1009.9 |
| 20260509005902 | 90 | 10 | 3.0 | 5.0 | 0.00 | 0.00 | 0.00 | 14 | 1009.7 |
| 20260509005400 | 89 | 303 | 7.0 | 9.0 | 0.00 | 0.00 | 0.00 | 14 | 1009.8 |
| 20260509004900 | 90 | 291 | 7.0 | 7.0 | 0.00 | 0.00 | 0.00 | 14 | 1009.9 |
| 20260509004357 | 90 | 208 | 6.0 | 8.0 | 0.00 | 0.00 | 0.00 | 14 | 1009.6 |
| 20260509003854 | 89 | 296 | 7.0 | 8.0 | 0.00 | 0.00 | 0.00 | 13 | 1009.6 |
| 20260509003352 | 90 | 294 | 3.0 | 3.0 | 0.00 | 0.00 | 0.00 | 14 | 1009.5 |
| 20260509002849 | 90 | 46 | 4.0 | 5.0 | 0.00 | 0.00 | 0.00 | 15 | 1009.9 |
| 20260509002347 | 90 | 348 | 3.0 | 3.0 | 0.00 | 0.00 | 0.00 | 14 | 1009.7 |
| 20260509001844 | 90 | 329 | 7.0 | 8.0 | 0.00 | 0.00 | 0.00 | 15 | 1009.5 |
| 20260509001340 | 90 | 334 | 6.0 | 7.0 | 0.00 | 0.00 | 0.00 | 14 | 1009.6 |
| 20260509000837 | 90 | 329 | 8.0 | 10.0 | 0.00 | 0.00 | 0.00 | 13 | 1009.5 |
| 20260509000335 | 90 | 325 | 9.0 | 9.0 | 0.00 | 0.00 | 0.00 | 13 | 1009.6 |
| 20260508235831 | 90 | 269 | 8.0 | 10.0 | 0.00 | 0.00 | 0.00 | 13 | 1009.7 |
| 20260508235328 | 91 | 320 | 6.0 | 7.0 | 0.00 | 0.00 | 0.00 | 13 | 1009.7 |
| 20260508234825 | 91 | 277 | 12.0 | 15.0 | 0.00 | 0.00 | 0.00 | 13 | 1009.8 |
| 20260508234321 | 91 | 337 | 7.0 | 10.0 | 0.00 | 0.00 | 0.00 | 14 | 1009.8 |
| 20260508233820 | 91 | 295 | 7.0 | 11.0 | 0.00 | 0.00 | 0.00 | 14 | 1009.9 |
| 20260508233319 | 91 | 290 | 8.0 | 10.0 | 0.00 | 0.00 | 0.00 | 14 | 1009.7 |
| 20260508232815 | 91 | 348 | 3.0 | 3.0 | 0.00 | 0.00 | 0.00 | 15 | 1009.8 |
| 20260508232312 | 91 | 335 | 4.0 | 5.0 | 0.00 | 0.00 | 0.00 | 15 | 1009.9 |
| 20260508231811 | 91 | 325 | 8.0 | 9.0 | 0.00 | 0.00 | 0.00 | 14 | 1010.1 |
| 20260508231306 | 91 | 294 | 7.0 | 9.0 | 0.00 | 0.00 | 0.00 | 13 | 1010.2 |
| 20260508230803 | 90 | 323 | 4.0 | 5.0 | 0.00 | 0.00 | 0.00 | 16 | 1009.9 |
| 20260508230259 | 90 | 295 | 6.0 | 7.0 | 0.00 | 0.00 | 0.00 | 14 | 1010.1 |
| 20260508225757 | 91 | 283 | 9.0 | 11.0 | 0.00 | 0.00 | 0.00 | 15 | 1010.2 |
| 20260508225253 | 91 | 352 | 6.0 | 8.0 | 0.00 | 0.00 | 0.00 | 14 | 1010.3 |
| 20260508224752 | 90 | 320 | 8.0 | 10.0 | 0.00 | 0.00 | 0.00 | 14 | 1010.3 |
| 20260508224249 | 91 | 298 | 7.0 | 9.0 | 0.00 | 0.00 | 0.00 | 15 | 1010.3 |
| 20260508223746 | 91 | 251 | 5.0 | 7.0 | 0.00 | 0.00 | 0.00 | 14 | 1010.5 |
| 20260508223243 | 90 | 182 | 7.0 | 9.0 | 0.00 | 0.00 | 0.00 | 14 | 1010.4 |
| 20260508222741 | 90 | 285 | 14.0 | 16.0 | 0.00 | 0.00 | 0.00 | 14 | 1010.5 |
| 20260508222238 | 90 | 303 | 6.0 | 7.0 | 0.00 | 0.00 | 0.00 | 14 | 1010.7 |
| 20260508221734 | 90 | 286 | 7.0 | 9.0 | 0.00 | 0.00 | 0.00 | 15 | 1010.7 |
| 20260508221230 | 91 | 296 | 9.0 | 9.0 | 0.00 | 0.00 | 0.00 | 15 | 1010.6 |
| 20260508220726 | 91 | 340 | 5.0 | 6.0 | 0.00 | 0.00 | 0.00 | 17 | 1010.4 |
| 20260508220223 | 89 | 326 | 4.0 | 6.0 | 0.00 | 0.00 | 0.00 | 17 | 1010.6 |
| 20260508215720 | 90 | 216 | 7.0 | 9.0 | 0.00 | 0.00 | 0.00 | 17 | 1010.8 |
| 20260508215216 | 91 | 342 | 4.0 | 5.0 | 0.00 | 0.00 | 0.00 | 16 | 1010.9 |
| 20260508214713 | 90 | 270 | 14.0 | 17.0 | 0.00 | 0.00 | 0.00 | 15 | 1011.0 |
| 20260508214211 | 89 | 9 | 4.0 | 5.0 | 0.00 | 0.00 | 0.00 | 16 | 1011.1 |
| 20260508213707 | 90 | 270 | 6.0 | 7.0 | 0.00 | 0.00 | 0.00 | 18 | 1011.2 |
| 20260508213204 | 89 | 321 | 5.0 | 6.0 | 0.00 | 0.00 | 0.00 | 18 | 1011.2 |
| 20260508212700 | 90 | 263 | 9.0 | 9.0 | 0.00 | 0.00 | 0.00 | 19 | 1011.1 |
| 20260508212157 | 89 | 23 | 5.0 | 7.0 | 0.00 | 0.00 | 0.00 | 16 | 1011.4 |
| 20260508211652 | 89 | 53 | 7.0 | 10.0 | 0.00 | 0.00 | 0.00 | 16 | 1011.2 |
| 20260508211148 | 89 | 224 | 7.0 | 10.0 | 0.00 | 0.00 | 0.00 | 16 | 1011.5 |
| 20260508210645 | 89 | 275 | 9.0 | 11.0 | 0.00 | 0.00 | 0.00 | 18 | 1011.5 |
| 20260508210143 | 89 | 308 | 9.0 | 11.0 | 0.00 | 0.00 | 0.00 | 15 | 1011.6 |
| 20260508205640 | 89 | 325 | 4.0 | 5.0 | 0.00 | 0.00 | 0.00 | 18 | 1011.6 |
| 20260508205136 | 89 | 243 | 8.0 | 9.0 | 0.00 | 0.00 | 0.00 | 16 | 1011.7 |
| 20260508204632 | 89 | 337 | 8.0 | 8.0 | 0.00 | 0.00 | 0.00 | 18 | 1011.8 |
| 20260508204128 | 89 | 254 | 4.0 | 5.0 | 0.00 | 0.00 | 0.00 | 16 | 1011.9 |
| 20260508203625 | 89 | 349 | 10.0 | 13.0 | 0.00 | 0.00 | 0.00 | 17 | 1011.9 |
| 20260508203121 | 88 | 292 | 10.0 | 14.0 | 0.00 | 0.00 | 0.00 | 17 | 1011.8 |
| 20260508202617 | 88 | 310 | 10.0 | 11.0 | 0.00 | 0.00 | 0.00 | 18 | 1012.0 |
| 20260508202115 | 88 | 272 | 8.0 | 11.0 | 0.00 | 0.00 | 0.00 | 17 | 1012.1 |
| 20260508201611 | 89 | 340 | 5.0 | 7.0 | 0.00 | 0.00 | 0.00 | 18 | 1012.2 |